Regional Weather Roundup
Issued by NWS Goodland, KS

Home | Current Version | Previous Version | Text Only | Print | Product List | Glossary On
Versions: 1 2 3 4 5 6 7 8 9 10 11 12 13 14 15 16 17 18 19 20 21 22 23 24 25 26 27 28 29 30 31 32 33 34 35 36 37 38 39 40 41 42 43 44 45 46 47 48 49 50
000
ASUS43 KGLD 010108
RWRGLD

GOODLAND FORECAST AREA HOURLY WEATHER ROUNDUP
NATIONAL WEATHER SERVICE GOODLAND KS
700 PM MDT TUE MAY 31 2016

...OFFICIAL OBSERVATIONS...

CITY           SKY/WX    TMP DP  RH WIND       PRES   REMARKS
GOODLAND KS    CLOUDY    65  48  54 NE8       30.05R
HILL CITY KS   CLOUDY    72  52  49 E7        30.01R
IMPERIAL NEB   MOSUNNY   69  45  41 W7        30.04R
MCCOOK NEB     PTSUNNY   67  51  56 S3        30.02R
AKRON CO       MOSUNNY   62  48  60 NE10      30.07S
BURLINGTON CO  PTSUNNY   66  45  46 E12       30.07R
LIMON CO       TSTM      58  53  84 NE8       30.09R
$$

...UNOFFICIAL OBSERVATIONS...

CITY           SKY/WX    TMP DP  RH WIND       PRES   REMARKS
GOVE KS          N/A     69  32  25 MISG        N/A
LENORA KS        N/A     70  32  24 MISG        N/A
SHARON SPRINGS   N/A     67  55  64 E5G12       N/A
KIT CARSON CO    N/A     66  50  57 MISG        N/A
YUMA CO          N/A     65  49  56 NE7         N/A
$$



USA.gov is the U.S. government's official web portal to all federal, state and local government web resources and services.